Regional Weather Roundup
Issued by NWS

Home | Current Version | Previous Version | Text Only | Print | Product List | Glossary Off
Versions: 1 2 3 4 5 6 7 8 9 10 11 12 13 14 15 16 17 18 19 20 21 22 23 24 25 26 27 28 29 30 31 32 33 34 35 36 37 38 39 40 41 42 43 44 45 46 47 48 49 50

000
ASUS45 KBOI 111110
RWRID

IDAHO REGIONAL WEATHER ROUNDUP
NATIONAL WEATHER SERVICE BOISE ID
400 AM MST THU FEB 11 2016

NOTE: "FAIR" INDICATES FEW OR NO CLOUDS BELOW 12000 FEET
WITH NO SIGNIFICANT WEATHER AND/OR OBSTRUCTIONS TO VISIBILITY

IDZ012-014-111200-
SOUTHWEST IDAHO


CITY           SKY/WX    TMP DP  RH WIND       PRES   REMARKS
BOISE          PTCLDY    31  29  92 CALM      30.40F FOG
CALDWELL       PTCLDY    30  29  96 E3        30.42F FOG
MOUNTAIN HOME  CLOUDY    28  27  97 SE5       30.41F WCI  22
$$

IDZ016-017-111200-
SOUTHCENTRAL IDAHO


CITY           SKY/WX    TMP DP  RH WIND       PRES   REMARKS
BURLEY         PTCLDY    23  21  92 N3        30.38R
JEROME         CLEAR     23  18  81 NE15      30.38S WCI  10
TWIN FALLS     CLEAR     28  26  92 CALM      30.38S FOG
$$

IDZ019>023-111200-
SOUTHEAST IDAHO


CITY           SKY/WX    TMP DP  RH WIND       PRES   REMARKS
IDAHO FALLS    CLOUDY    17  14  88 NW5       30.39F WCI  10
POCATELLO      CLOUDY    21  18  88 CALM      30.41S
REXBURG        CLOUDY    19  16  88 CALM      30.39S
$$

IDZ006-010-011-018-031-032-111200-
CENTRAL IDAHO MOUNTAINS


CITY           SKY/WX    TMP DP  RH WIND       PRES   REMARKS
MCCALL         CLOUDY    27  25  92 CALM      30.34S
HAILEY         CLEAR     21  19  93 CALM      30.38R
STANLEY          N/A     17  11  77 CALM      30.38R
SALMON         CLOUDY    16  12  86 CALM      30.39F
CHALLIS        PTCLDY    15  12  88 NW3       30.34F
$$

IDZ002-004-006-007-026-111200-
NORTHERN IDAHO


CITY           SKY/WX    TMP DP  RH WIND       PRES   REMARKS
LEWISTON       CLOUDY    47  33  58 CALM      30.32S
LOWELL           N/A     37  35  92 N3        30.38R
COEUR D`ALENE  MOCLDY    32  28  86 NE6       30.29R WCI  26
MULLAN PASS    CLOUDY    32  31  96 VRB6      30.26R WCI  26
$$



USA.gov is the U.S. government's official web portal to all federal, state and local government web resources and services.